Weather History for KPPA - March, 2014

Change the Weather History Date:

Thursday, March 20, 2014

  Actual Average Record
Temperature  
Mean Temperature 56 °F -  
Max Temperature 77 °F 63 °F 84 °F (1972)
Min Temperature 35 °F 33 °F 14 °F (1965)
Degree Days  
Heating Degree Days 9    
Growing Degree Days 6 (Base 50)    
Moisture  
Dew Point 12 °F    
Average Humidity 24    
Maximum Humidity 46    
Minimum Humidity 7    
Precipitation  
Precipitation 0.00 in - - ()
Sea Level Pressure  
Sea Level Pressure 30.01 in    
Wind  
Wind Speed 14 mph (SW)    
Max Wind Speed 24 mph    
Max Gust Speed 31 mph    
Visibility 10 miles    
Events      
Averages and records for this station are not official NWS values.
T = Trace of Precipitation, MM = Missing Value Source: NWS Daily Summary

Daily Weather History Graph

Daily Weather History Graph

Search for Another Location

Airport or City:

Trip Planner

Search our weather history database for the weather conditions in past years. The results will help you decide how hot, cold, wet, or windy it might be!

Date:

Astronomy

Mar. 20, 2014 Rise Set
Actual Time 7:47 AM CDT 7:55 PM CDT
Civil Twilight 7:22 AM CDT 8:21 PM CDT
Nautical Twilight 6:52 AM CDT 8:50 PM CDT
Astronomical Twilight 6:22 AM CDT 9:21 PM CDT
Moon No Moon Rise 10:03 AM CDT (3/20)
Length of Visible Light 12h 59m
Length of Day
12h 08m
Waning Gibbous, 84% of the Moon is Illuminated
Mar 20
Waning Gibbous
Mar 23
Last Quarter
Mar 30
New
Apr 7
First Quarter
Apr 15
Full

Hourly Weather History & Observations

Time (CDT) Temp. Windchill Dew Point Humidity Pressure Visibility Wind Dir Wind Speed Gust Speed Precip Events Conditions
12:15 AM 37.0 °F 29.8 °F 13.6 °F 38% 30.18 in 10.0 mi South 10.4 mph - N/A   Clear
12:35 AM 36.7 °F 29.9 °F 14.0 °F 39% 30.18 in 10.0 mi South 9.2 mph - N/A   Clear
12:55 AM 36.1 °F 28.2 °F 14.5 °F 41% 30.17 in 10.0 mi South 11.5 mph - N/A   Clear
1:15 AM 38.3 °F 30.9 °F 15.6 °F 40% 30.17 in 10.0 mi South 11.5 mph - N/A   Clear
1:35 AM 38.8 °F 31.2 °F 15.4 °F 39% 30.17 in 10.0 mi South 12.7 mph - N/A   Clear
1:55 AM 38.3 °F 30.5 °F 15.4 °F 39% 30.17 in 10.0 mi South 12.7 mph - N/A   Clear
2:15 AM 37.6 °F 29.1 °F 15.8 °F 41% 30.16 in 10.0 mi South 13.8 mph - N/A   Clear
2:35 AM 37.0 °F 28.9 °F 15.8 °F 42% 30.16 in 10.0 mi South 12.7 mph - N/A   Clear
2:55 AM 36.3 °F 28.4 °F 16.3 °F 44% 30.16 in 10.0 mi South 11.5 mph - N/A   Clear
3:15 AM 36.5 °F 27.8 °F 16.5 °F 44% 30.14 in 10.0 mi South 13.8 mph - N/A   Clear
3:35 AM 37.8 °F 29.4 °F 16.5 °F 42% 30.14 in 10.0 mi South 13.8 mph - N/A   Clear
3:55 AM 37.4 °F 28.5 °F 16.3 °F 42% 30.12 in 10.0 mi South 15.0 mph - N/A   Clear
4:15 AM 38.3 °F 30.1 °F 16.5 °F 41% 30.11 in 10.0 mi South 13.8 mph - N/A   Clear
4:35 AM 37.0 °F 27.7 °F 16.7 °F 44% 30.10 in 10.0 mi South 16.1 mph - N/A   Clear
4:55 AM 36.5 °F 27.4 °F 16.7 °F 45% 30.10 in 10.0 mi South 15.0 mph - N/A   Clear
5:15 AM 36.0 °F 27.5 °F 17.1 °F 46% 30.09 in 10.0 mi South 12.7 mph - N/A   Clear
5:35 AM 37.2 °F 27.9 °F 17.4 °F 45% 30.09 in 10.0 mi South 16.1 mph - N/A   Clear
5:55 AM 38.7 °F 29.8 °F 17.1 °F 42% 30.09 in 10.0 mi SSW 16.1 mph 20.7 mph N/A   Clear
6:15 AM 37.4 °F 27.8 °F 17.1 °F 44% 30.08 in 10.0 mi SSW 17.3 mph - N/A   Clear
6:35 AM 36.9 °F 26.8 °F 16.5 °F 44% 30.08 in 10.0 mi SSW 18.4 mph - N/A   Clear
6:55 AM 37.2 °F 27.3 °F 15.6 °F 41% 30.08 in 10.0 mi SSW 18.4 mph 23.0 mph N/A   Clear
7:15 AM 37.2 °F 27.6 °F 15.3 °F 41% 30.08 in 10.0 mi SSW 17.3 mph - N/A   Clear
7:35 AM 36.5 °F 27.8 °F 14.9 °F 41% 30.09 in 10.0 mi SSW 13.8 mph - N/A   Clear
7:55 AM 35.6 °F 27.1 °F 14.9 °F 43% 30.10 in 10.0 mi SSW 12.7 mph - N/A   Clear
8:15 AM 35.8 °F 27.3 °F 14.9 °F 43% 30.10 in 10.0 mi SSW 12.7 mph - N/A   Clear
8:35 AM 36.9 °F 27.8 °F 15.1 °F 41% 30.10 in 10.0 mi SSW 15.0 mph - N/A   Clear
8:55 AM 39.0 °F 30.6 °F 15.3 °F 38% 30.11 in 10.0 mi SSW 15.0 mph - N/A   Clear
9:15 AM 41.7 °F 33.7 °F 15.4 °F 35% 30.10 in 10.0 mi SW 16.1 mph 20.7 mph N/A   Clear
9:35 AM 45.7 °F 38.8 °F 16.2 °F 31% 30.10 in 10.0 mi SW 16.1 mph 23.0 mph N/A   Clear
9:55 AM 50.7 °F - 17.1 °F 26% 30.10 in 10.0 mi SW 16.1 mph - N/A   Clear
10:15 AM 54.5 °F - 16.7 °F 23% 30.10 in 7.0 mi WSW 21.9 mph 31.1 mph N/A   Clear
10:35 AM 55.9 °F - 16.5 °F 21% 30.10 in 10.0 mi WSW 19.6 mph 27.6 mph N/A   Clear
10:55 AM 57.6 °F - 15.6 °F 19% 30.09 in 7.0 mi West 21.9 mph 26.5 mph N/A   Clear
11:15 AM 59.7 °F - 15.1 °F 17% 30.08 in 7.0 mi WSW 17.3 mph - N/A   Clear
11:35 AM 61.3 °F - 11.3 °F 14% 30.08 in 10.0 mi West 20.7 mph 26.5 mph N/A   Clear
11:55 AM 62.6 °F - 10.9 °F 13% 30.07 in 10.0 mi West 17.3 mph - N/A   Clear
12:15 PM 64.8 °F - 11.1 °F 12% 30.06 in 10.0 mi West 16.1 mph 23.0 mph N/A   Clear
12:35 PM 66.7 °F - 10.4 °F 11% 30.05 in 10.0 mi WSW 16.1 mph 25.3 mph N/A   Clear
12:55 PM 67.8 °F - 9.9 °F 10% 30.04 in 10.0 mi WSW 18.4 mph 25.3 mph N/A   Clear
1:15 PM 68.9 °F - 9.7 °F 10% 30.03 in 10.0 mi West 19.6 mph 25.3 mph N/A   Clear
1:35 PM 69.3 °F - 9.1 °F 10% 30.02 in 10.0 mi West 18.4 mph 24.2 mph N/A   Clear
1:55 PM 70.5 °F - 9.3 °F 9% 30.01 in 10.0 mi West 10.4 mph 21.9 mph N/A   Clear
2:15 PM 70.0 °F - 9.0 °F 9% 30.00 in 10.0 mi WSW 12.7 mph 17.3 mph N/A   Clear
2:35 PM 70.9 °F - 9.0 °F 9% 29.98 in 10.0 mi West 13.8 mph 18.4 mph N/A   Clear
2:55 PM 72.3 °F - 9.3 °F 9% 29.97 in 10.0 mi SW 9.2 mph 16.1 mph N/A   Clear
3:15 PM 74.3 °F - 9.3 °F 8% 29.95 in 10.0 mi WSW 11.5 mph 20.7 mph N/A   Clear
3:35 PM 74.7 °F - 8.2 °F 8% 29.94 in 10.0 mi SW 15.0 mph 24.2 mph N/A   Clear
3:55 PM 75.2 °F - 10.4 °F 8% 29.92 in 10.0 mi SW 18.4 mph 24.2 mph N/A   Clear
4:15 PM 74.8 °F - 9.9 °F 8% 29.91 in 10.0 mi SW 18.4 mph 28.8 mph N/A   Clear
4:35 PM 75.9 °F - 10.8 °F 8% 29.90 in 10.0 mi SSW 19.6 mph 26.5 mph N/A   Clear
4:55 PM 76.6 °F - 8.6 °F 7% 29.88 in 10.0 mi SW 16.1 mph 27.6 mph N/A   Clear
5:15 PM 76.8 °F - 7.7 °F 7% 29.87 in 10.0 mi SW 15.0 mph 28.8 mph N/A   Clear
5:35 PM 77.5 °F - 9.5 °F 7% 29.86 in 10.0 mi SW 20.7 mph 27.6 mph N/A   Clear
5:55 PM 76.6 °F - 8.6 °F 7% 29.85 in 7.0 mi SW 21.9 mph 31.1 mph N/A   Clear
6:15 PM 76.3 °F - 8.4 °F 7% 29.85 in 10.0 mi SW 20.7 mph 27.6 mph N/A   Clear
6:35 PM 75.4 °F - 8.4 °F 8% 29.85 in 10.0 mi SW 24.2 mph 28.8 mph N/A   Clear
6:55 PM 74.5 °F - 8.6 °F 8% 29.85 in 10.0 mi SW 19.6 mph 28.8 mph N/A   Clear
7:15 PM 73.0 °F - 7.5 °F 8% 29.84 in 10.0 mi SW 18.4 mph 26.5 mph N/A   Clear
7:35 PM 70.3 °F - 6.8 °F 8% 29.85 in 10.0 mi SW 16.1 mph 23.0 mph N/A   Clear
7:55 PM 67.6 °F - 7.3 °F 9% 29.85 in 10.0 mi SW 11.5 mph - N/A   Clear
8:15 PM 63.3 °F - 7.5 °F 11% 29.85 in 10.0 mi SW 11.5 mph - N/A   Clear
8:35 PM 62.1 °F - 7.7 °F 12% 29.85 in 10.0 mi SSW 12.7 mph - N/A   Clear
8:55 PM 59.0 °F - 7.2 °F 13% 29.84 in 10.0 mi SSW 12.7 mph - N/A   Clear
9:15 PM 61.3 °F - 7.5 °F 12% 29.84 in 10.0 mi SSW 15.0 mph - N/A   Clear
9:35 PM 59.7 °F - 7.5 °F 13% 29.84 in 10.0 mi SSW 13.8 mph - N/A   Clear
9:55 PM 57.2 °F - 6.3 °F 13% 29.84 in 10.0 mi SSW 13.8 mph - N/A   Clear
10:15 PM 56.3 °F - 7.7 °F 14% 29.84 in 10.0 mi SSW 15.0 mph - N/A   Clear
10:35 PM 56.7 °F - 9.1 °F 15% 29.84 in 10.0 mi SSW 13.8 mph - N/A   Clear
10:55 PM 58.6 °F - 10.8 °F 15% 29.84 in 10.0 mi SSW 17.3 mph - N/A   Clear
11:15 PM 59.4 °F - 11.8 °F 15% 29.84 in 10.0 mi SSW 18.4 mph - N/A   Clear
11:35 PM 59.2 °F - 12.6 °F 16% 29.84 in 10.0 mi SSW 18.4 mph - N/A   Clear
11:55 PM 59.4 °F - 12.9 °F 16% 29.83 in 10.0 mi SSW 21.9 mph 26.5 mph N/A   Clear